[[{"header":{"parameterUnit":"m.s-1","parameterCategory":1,"la1":30.2991,"la2":30.254,"lo1":-89.0895,"lo2":-89.0444,"dy":0.0017,"dx":0.0017,"nx":28,"ny":28,"refTime":"2024-04-20T03:00:00:Z","depth":0,"parameterNumber":2,"parameterNumberName":"U-component_of_WINDS"},"data":[0,0,0,0,0,0,0,0,0,0,0,0,0,0,0,0,0,0,0,0,0,0,0,0,0,0,0,0,0,0,0,0,0,0,0,0,0,0,0,0,0,0,0,0,0,0,0,0,0,0,0,0,0,0,0,0,0,0,1.7319,1.7319,0,1.7385,1.7385,1.7386,1.733,1.7327,1.7325,1.7323,1.7395,1.7399,1.7403,0,0,0,0,0,0,0,0,0,0,0,0,0,1.715,1.7154,1.7319,1.7319,1.732,1.7384,1.7385,1.7386,1.733,1.7327,1.7324,1.7322,1.7393,1.7398,1.7403,0,0,0,0,0,0,0,0,0,0,0,0,0,1.7221,1.7155,1.7318,1.73,1.7299,1.7384,1.7385,1.7386,1.7331,1.7327,1.7324,1.732,1.7392,1.7398,1.7404,1.7512,0,0,1.7423,1.7425,0,0,0,0,0,0,0,0,1.7217,1.7227,1.7302,1.7301,1.73,1.7345,1.7352,1.7429,1.7332,1.7319,1.7323,1.7319,1.7381,1.7388,1.7408,1.7516,1.7519,1.7423,1.7427,1.743,1.7431,0,0,0,0,0,0,0,1.7212,1.7224,1.7345,1.7303,1.7302,1.729,1.7296,1.7367,1.7369,1.732,1.7316,1.7324,1.738,1.7403,1.741,1.752,1.7423,1.7428,1.7432,1.7435,1.7724,1.7727,0,0,0,0,0,0,1.7208,1.722,1.7343,1.7347,1.7249,1.7296,1.7303,1.7334,1.7368,1.737,1.7327,1.7321,1.7394,1.7403,1.7412,1.7544,1.7429,1.7435,1.7439,1.772,1.7725,1.7729,0,0,0,0,0,0,1.7205,1.722,1.734,1.7282,1.7297,1.7303,1.7339,1.7338,1.736,1.7374,1.7374,1.7349,1.7391,1.7403,1.7488,1.7545,1.7438,1.7444,1.7715,1.7721,1.7727,1.7806,0,0,0,0,0,0,1.72,1.7219,1.7258,1.7284,1.73,1.7414,1.7342,1.7341,1.737,1.7363,1.7394,1.7396,1.7389,1.7479,1.7494,1.7552,1.7448,1.771,1.7718,1.7725,1.7799,1.7814,1.7828,0,0,0,0,0,1.7194,1.7278,1.7261,1.7276,1.7349,1.7417,1.7426,1.7416,1.7375,1.7416,1.7425,1.7395,1.7537,1.7489,1.7505,1.7565,1.7706,1.7716,1.7724,1.7792,1.7811,1.7827,0,0,0,0,0,0,1.726,1.7281,1.7262,1.7356,1.7385,1.7407,1.7458,1.7436,1.7478,1.747,1.7456,1.7464,1.7554,1.7568,1.7514,1.7674,1.7615,1.7628,1.7661,1.768,1.7694,1.7689,1.7454,0,0,0,0,0,1.7286,1.7337,1.7353,1.7435,1.745,1.7452,1.7481,1.747,1.75,1.7513,1.7528,1.756,1.7612,1.7646,1.7695,1.7801,1.7809,1.785,1.7865,1.7877,1.7888,1.7949,1.7969,1.7758,1.7758,1.7758,0,0,1.7339,1.7357,1.739,1.7449,1.747,1.7526,1.7463,1.7523,1.7566,1.7522,1.7604,1.7617,1.7652,1.7749,1.7792,1.7763,1.7948,1.7888,1.7898,1.7903,1.796,1.798,1.7998,1.7764,1.7763,1.7762,0,0,1.7464,1.7482,1.7553,1.7576,1.7609,1.761,1.7627,1.7654,1.766,1.7742,1.7712,1.7763,1.7851,1.7878,1.7904,1.8043,1.8018,1.806,1.8136,1.8195,1.8211,1.8226,1.8278,1.8297,1.8071,1.8071,1.8071,0,1.7526,1.7607,1.7593,1.7657,1.7685,1.7648,1.7722,1.7745,1.7793,1.7815,1.7781,1.7894,1.7915,1.8019,1.8053,1.8074,1.8096,1.8056,1.821,1.8224,1.8238,1.8288,1.8307,1.8076,1.8075,1.8075,1.8074,0,1.7683,1.774,1.7794,1.7841,1.7875,1.7944,1.7942,1.7979,1.7967,1.7972,1.8058,1.8082,1.8136,1.816,1.8148,1.8264,1.8245,1.8211,1.8152,1.8263,1.831,1.8329,1.8083,1.8081,1.808,1.8078,0,0,1.785,1.789,1.791,1.7932,1.7967,1.8012,1.8081,1.8133,1.8166,1.8201,1.826,1.8338,1.8307,1.8336,1.8328,1.838,1.8492,1.834,1.834,1.8369,1.8625,1.8651,1.8673,1.8476,1.8479,1.8482,1.8623,0,1.7979,1.8096,1.8087,1.8199,1.8253,1.8221,1.8281,1.8311,1.8319,1.8368,1.8377,1.8433,1.8388,1.8406,1.8455,1.8468,1.8544,1.8457,1.8533,1.8536,1.8526,1.8697,1.8724,1.8856,1.8641,1.8644,1.8646,0,1.8143,1.8184,1.8302,1.8331,1.8354,1.8408,1.8457,1.8503,1.8537,1.854,1.8574,1.8558,1.863,1.8569,1.867,1.8612,1.8643,1.8654,1.8659,1.8667,1.8598,1.8711,1.8897,1.8917,1.8674,1.8672,1.867,0,1.8256,1.8341,1.8422,1.8442,1.8478,1.8518,1.8535,1.8566,1.8599,1.8642,1.8664,1.8715,1.8744,1.8786,1.8785,1.874,1.8889,1.8827,1.8896,1.8896,1.8929,1.8927,1.9124,1.8947,1.8946,1.8946,1.8946,0,1.8401,1.8475,1.8474,1.8524,1.8607,1.8597,1.8681,1.8694,1.8722,1.8777,1.8752,1.8805,1.88,1.8854,1.8854,1.894,1.8952,1.8958,1.8958,1.8961,1.8961,1.8982,1.8973,1.8951,1.895,1.8949,1.8948,0,1.8541,1.8543,1.863,1.8658,1.8667,1.8727,1.8752,1.8802,1.8808,1.8878,1.8894,1.8905,1.8968,1.8971,1.9043,1.9043,1.9148,1.9137,1.9136,1.9135,1.9204,1.9198,1.9422,1.9453,1.9254,1.9256,1.9257,0,1.8633,1.869,1.8724,1.8758,1.8778,1.8833,1.8867,1.8861,1.8898,1.8943,1.8988,1.9048,1.9095,1.9197,1.9213,1.9269,1.926,1.9335,1.9268,1.9271,1.9264,1.9261,1.9268,1.9348,1.935,1.9352,1.9353,0,1.8799,1.8798,1.8846,1.8897,1.8938,1.8978,1.9014,1.9045,1.9043,1.9086,1.9149,1.9186,1.926,1.9321,1.9377,1.9397,1.9377,1.9374,1.9394,1.9398,1.9397,1.9401,1.9174,1.9369,1.9368,1.9367,1.9366,1.9365,1.8919,1.8969,1.9001,1.9058,1.9085,1.9121,1.9169,1.9183,1.9234,1.9293,1.9287,1.9358,1.9395,1.9467,1.9492,1.9549,1.9524,1.9551,1.9558,1.9566,1.9574,1.9387,1.9559,1.9559,1.9558,1.9558,1.9558,0,1.9085,1.9105,1.9157,1.9209,1.9255,1.923,1.9271,1.9311,1.9373,1.9408,1.9456,1.9531,1.959,1.9612,1.9671,1.9713,1.9706,1.9729,1.9727,1.9733,1.9592,1.957,1.9734,1.9734,1.9734,1.9734,1.9734,1.9734,1.9177,1.926,1.9264,1.9362,1.9381,1.945,1.9475,1.951,1.9538,1.9622,1.9671,1.9684,1.9716,1.9777,1.9832,1.9837,1.9861,1.9889,1.9891,1.976,1.9742,1.9725,1.9705,1.9894,1.9894,2.0027,2.0028,2.0029]},{"header":{"parameterUnit":"m.s-1","parameterCategory":1,"la1":30.2991,"la2":30.254,"lo1":-89.0895,"lo2":-89.0444,"dy":0.0017,"dx":0.0017,"nx":28,"ny":28,"refTime":"2024-04-20T03:00:00:Z","depth":0,"parameterNumber":3,"parameterNumberName":"V-component_of_WINDS"},"data":[0,0,0,0,0,0,0,0,0,0,0,0,0,0,0,0,0,0,0,0,0,0,0,0,0,0,0,0,0,0,0,0,0,0,0,0,0,0,0,0,0,0,0,0,0,0,0,0,0,0,0,0,0,0,0,0,0,0,-4.1048,-4.1046,0,-4.0886,-4.0884,-4.0882,-4.0883,-4.0885,-4.0887,-4.0889,-4.0706,-4.0699,-4.0693,0,0,0,0,0,0,0,0,0,0,0,0,0,-4.1342,-4.1337,-4.1048,-4.1046,-4.1044,-4.0886,-4.0884,-4.0881,-4.0882,-4.0885,-4.0888,-4.089,-4.0708,-4.07,-4.0692,0,0,0,0,0,0,0,0,0,0,0,0,0,-4.12,-4.1335,-4.1049,-4.1026,-4.1022,-4.0886,-4.0884,-4.0881,-4.0882,-4.0885,-4.0888,-4.0891,-4.0711,-4.0701,-4.0691,-4.0561,0,0,-4.0659,-4.0655,0,0,0,0,0,0,0,0,-4.1208,-4.119,-4.1031,-4.1027,-4.1023,-4.0908,-4.092,-4.0773,-4.0881,-4.0935,-4.0889,-4.0893,-4.077,-4.0755,-4.0716,-4.0553,-4.0545,-4.0658,-4.0652,-4.0647,-4.0645,0,0,0,0,0,0,0,-4.1218,-4.1196,-4.0983,-4.1029,-4.1024,-4.1018,-4.1002,-4.0892,-4.0835,-4.093,-4.093,-4.0912,-4.0768,-4.0726,-4.0712,-4.0542,-4.0658,-4.0649,-4.0643,-4.0639,-4.0259,-4.0255,0,0,0,0,0,0,-4.1235,-4.1205,-4.0989,-4.0979,-4.1126,-4.1011,-4.0992,-4.0941,-4.0837,-4.0824,-4.0909,-4.0912,-4.0742,-4.0724,-4.0706,-4.0544,-4.0648,-4.0638,-4.0632,-4.0263,-4.0258,-4.0254,0,0,0,0,0,0,-4.1242,-4.1216,-4.0995,-4.1092,-4.1063,-4.1002,-4.0945,-4.0936,-4.0895,-4.0821,-4.0809,-4.0878,-4.0744,-4.072,-4.0597,-4.0537,-4.0633,-4.0624,-4.0268,-4.0262,-4.0256,-4.0221,0,0,0,0,0,0,-4.125,-4.1218,-4.1172,-4.1091,-4.1058,-4.0895,-4.0942,-4.0931,-4.0879,-4.0882,-4.0789,-4.0776,-4.0745,-4.0613,-4.0587,-4.0525,-4.0616,-4.0272,-4.0265,-4.0258,-4.0227,-4.0215,-4.0204,0,0,0,0,0,-4.1261,-4.1166,-4.117,-4.1144,-4.1001,-4.0891,-4.0872,-4.0843,-4.0875,-4.0825,-4.0777,-4.0779,-4.055,-4.06,-4.0571,-4.0505,-4.0276,-4.0267,-4.0259,-4.0232,-4.0217,-4.0205,0,0,0,0,0,0,-4.1237,-4.1155,-4.1158,-4.1036,-4.0972,-4.0892,-4.0829,-4.0828,-4.0749,-4.0754,-4.0716,-4.0695,-4.0571,-4.0526,-4.0584,-4.0372,-4.0416,-4.0401,-4.0406,-4.0391,-4.0379,-4.039,-4.0607,0,0,0,0,0,-4.1219,-4.1142,-4.1073,-4.0971,-4.0939,-4.089,-4.0841,-4.0825,-4.0753,-4.0724,-4.0667,-4.0593,-4.0504,-4.0445,-4.0359,-4.0222,-4.0198,-4.0162,-4.015,-4.0141,-4.0127,-4.0046,-4.0028,-4.0225,-4.0226,-4.0226,0,0,-4.1177,-4.1124,-4.1076,-4.0965,-4.0913,-4.0829,-4.0866,-4.0776,-4.0711,-4.0709,-4.059,-4.0545,-4.0459,-4.0328,-4.0267,-4.0286,-4.0068,-4.013,-4.0124,-4.0114,-4.0035,-4.0016,-4.0,-4.022,-4.0221,-4.0222,0,0,-4.1059,-4.1014,-4.0922,-4.087,-4.0793,-4.076,-4.0738,-4.0659,-4.063,-4.0512,-4.0507,-4.0427,-4.0276,-4.0214,-4.0163,-4.0021,-4.0017,-3.9994,-3.9931,-3.9853,-3.9837,-3.9823,-3.9767,-3.9748,-3.9981,-3.9981,-3.9981,0,-4.1016,-4.0895,-4.0874,-4.0784,-4.0732,-4.0732,-4.0636,-4.0584,-4.048,-4.0442,-4.0467,-4.0276,-4.0218,-4.007,-4.0036,-3.9996,-3.9965,-4.0002,-3.9843,-3.9828,-3.9814,-3.976,-3.974,-3.9978,-3.9978,-3.9979,-3.9979,0,-4.0844,-4.0759,-4.0694,-4.0599,-4.054,-4.0447,-4.0407,-4.0349,-4.0338,-4.0301,-4.0177,-4.0109,-4.0008,-3.9972,-3.9958,-3.982,-3.9834,-3.9852,-3.9894,-3.9793,-3.9742,-3.9721,-3.9974,-3.9975,-3.9976,-3.9976,0,0,-4.0703,-4.0599,-4.0575,-4.053,-4.0445,-4.0376,-4.0281,-4.0187,-4.0136,-4.0064,-3.9979,-3.9851,-3.9866,-3.9808,-3.9787,-3.9719,-3.9605,-3.9744,-3.9741,-3.9716,-3.9442,-3.9427,-3.9404,-3.9605,-3.9601,-3.9598,-3.9448,0,-4.0572,-4.041,-4.0387,-4.024,-4.0159,-4.0157,-4.0073,-4.0008,-3.9971,-3.9892,-3.9849,-3.9758,-3.9787,-3.9751,-3.9685,-3.9634,-3.9549,-3.9645,-3.9518,-3.9514,-3.9535,-3.9378,-3.9361,-3.9223,-3.9428,-3.9425,-3.9423,0,-4.0397,-4.0325,-4.0172,-4.0096,-4.006,-3.9987,-3.9897,-3.9824,-3.9748,-3.9725,-3.9661,-3.9649,-3.9544,-3.9595,-3.9446,-3.9511,-3.9458,-3.9425,-3.9419,-3.9401,-3.9459,-3.9351,-3.9179,-3.9156,-3.9392,-3.9394,-3.9396,0,-4.0304,-4.0169,-4.0059,-4.0021,-3.9931,-3.9878,-3.9836,-3.9765,-3.9709,-3.9629,-3.9591,-3.9499,-3.9447,-3.9372,-3.9333,-3.9374,-3.9184,-3.9233,-3.9156,-3.9157,-3.9112,-3.9115,-3.8924,-3.9087,-3.9087,-3.9088,-3.9088,0,-4.0157,-4.0062,-4.0016,-3.9947,-3.9839,-3.9812,-3.9703,-3.9663,-3.9599,-3.9518,-3.951,-3.9433,-3.9388,-3.9303,-3.9271,-3.9149,-3.9126,-3.91,-3.9092,-3.9098,-3.91,-3.9059,-3.9065,-3.9082,-3.9084,-3.9085,-3.9086,0,-4.0033,-3.9999,-3.9878,-3.9804,-3.9783,-3.9705,-3.9638,-3.9569,-3.9534,-3.9431,-3.9405,-3.9347,-3.9245,-3.9201,-3.9074,-3.9053,-3.8912,-3.8913,-3.8939,-3.8935,-3.8859,-3.8865,-3.8631,-3.8596,-3.8787,-3.8785,-3.8784,0,-3.9939,-3.9867,-3.9786,-3.9734,-3.9692,-3.9608,-3.9553,-3.9523,-3.9463,-3.9371,-3.9311,-3.9212,-3.913,-3.8967,-3.8909,-3.8811,-3.8806,-3.8731,-3.8791,-3.8799,-3.8798,-3.8801,-3.8791,-3.8718,-3.8716,-3.8715,-3.8714,0,-3.9775,-3.9762,-3.9685,-3.9601,-3.9536,-3.9467,-3.9399,-3.9355,-3.9313,-3.9246,-3.9146,-3.9083,-3.8956,-3.8854,-3.8754,-3.8704,-3.8698,-3.8697,-3.8672,-3.8675,-3.8691,-3.8676,-3.8904,-3.87,-3.8702,-3.8703,-3.8703,-3.8704,-3.9659,-3.9593,-3.9526,-3.9439,-3.9386,-3.9323,-3.9253,-3.9211,-3.9129,-3.9026,-3.9013,-3.8904,-3.8825,-3.869,-3.8637,-3.8547,-3.8564,-3.8531,-3.8522,-3.8513,-3.8506,-3.8711,-3.8529,-3.8529,-3.853,-3.853,-3.853,0,-3.949,-3.9447,-3.9368,-3.9276,-3.9206,-3.9216,-3.914,-3.9079,-3.8985,-3.8916,-3.8837,-3.8719,-3.862,-3.8556,-3.8455,-3.8395,-3.8389,-3.8368,-3.8369,-3.8357,-3.8498,-3.8527,-3.8374,-3.8374,-3.8374,-3.8374,-3.8374,-3.8374,-3.9393,-3.9281,-3.926,-3.9119,-3.9076,-3.8973,-3.8929,-3.8868,-3.8813,-3.8683,-3.8603,-3.8565,-3.8495,-3.8389,-3.8296,-3.828,-3.824,-3.8217,-3.82,-3.8332,-3.8348,-3.8363,-3.8389,-3.821,-3.821,-3.8065,-3.8064,-3.8063]}]]